Starlink 35291

operational
NORAD ID: 66082 Int'l Des: 2025-235 Owner: SPXS Country: US Constellation: starlink
NOTLE

Starlink 35291について

説明を読み込み中...

リアルタイム位置

3D地球を読み込み中...

次回通過

高度履歴

Altitude vs Time

uPlot chart will show altitude changes over time

軌道要素

1 66082C 25235AB 25293.06645833 .00544310 00000+0 80173-3 0 2930
2 66082 53.1589 188.8611 0005418 295.2068 191.9864 16.03708654 17
Epoch: Oct 20, 2025 • Age: 17 hours

現在のステータス

高度 268.1 km
速度 7.75 km/s
衛星直下点 -20.48°S, 99.19°E
打ち上げ日 Oct 19, 2025
運用期間 1 days
タイプ internet

技術仕様

分類 Payload
質量 575.00 kg
乾燥質量 530.00 kg
総質量 575.00 kg
長さ 0.30 m
直径 4.10 m
スパン 29.00 m
形状 Box + pan
製造者 SPXS
バスタイプ Starlink V2MO
フェーズステータス In Orbit
所有者/国 SPXS/US

大規模コンステレーション

Loading constellations...